This is the latest recevied weather packets stored in our database for station/object W1ERB-13. If no packets are shown the sender has not sent any weather packets the latest 10 day(s).
| Time | Temp. | Humidity | Pressure | Rain* | Wind** | Luminosity | Snow |
|---|---|---|---|---|---|---|---|
| 1777814636 | 8.33° C | 60% | 1009.3 hPa | 0 mm | - | 235 W/m² | - |
| 1777814333 | 8.89° C | 60% | 1009.2 hPa | 0 mm | - | 337 W/m² | - |
| 1777814030 | 8.33° C | 61% | 1009.2 hPa | 0 mm | - | 538 W/m² | - |
| 1777813728 | 8.33° C | 59% | 1009.3 hPa | 0 mm | - | 578 W/m² | - |
| 1777813425 | 8.33° C | 62% | 1009.4 hPa | 0 mm | - | 355 W/m² | - |
| 1777813122 | 7.78° C | 61% | 1009.2 hPa | 0 mm | - | 527 W/m² | - |
| 1777812820 | 7.78° C | 61% | 1009.4 hPa | 0 mm | - | 390 W/m² | - |
| 1777812516 | 7.78° C | 61% | 1009.4 hPa | 0 mm | - | 314 W/m² | - |
| 1777812214 | 7.78° C | 61% | 1009.3 hPa | 0 mm | - | 221 W/m² | - |
| 1777811912 | 7.22° C | 62% | 1009.5 hPa | 0 mm | - | 182 W/m² | - |
| 1777811611 | 7.22° C | 63% | 1009.2 hPa | 0 mm | - | 135 W/m² | - |
| 1777811306 | 7.22° C | 62% | 1009.1 hPa | 0 mm | - | 142 W/m² | - |
| 1777811003 | 7.22° C | 62% | 1009.4 hPa | 0 mm | - | 149 W/m² | - |
| 1777810700 | 7.22° C | 61% | 1009.3 hPa | 0 mm | - | 154 W/m² | - |
| 1777810397 | 7.22° C | 61% | 1009.2 hPa | 0 mm | - | 226 W/m² | - |
| 1777810093 | 7.78° C | 61% | 1009.4 hPa | 0 mm | - | 158 W/m² | - |
| 1777809790 | 7.78° C | 61% | 1009 hPa | 0 mm | - | 182 W/m² | - |
| 1777809488 | 7.22° C | 61% | 1009.2 hPa | 0 mm | - | 270 W/m² | - |
| 1777809186 | 7.22° C | 62% | 1009.1 hPa | 0 mm | - | 234 W/m² | - |
| 1777808883 | 7.22° C | 64% | 1009 hPa | 0 mm | - | 197 W/m² | - |
| 1777808579 | 6.67° C | 64% | 1009.2 hPa | 0 mm | - | 150 W/m² | - |
| 1777808276 | 6.67° C | 63% | 1009 hPa | 0 mm | - | 196 W/m² | - |
| 1777807975 | 6.67° C | 63% | 1009 hPa | 0 mm | - | 177 W/m² | - |
| 1777807672 | 6.11° C | 64% | 1008.8 hPa | 0 mm | - | 161 W/m² | - |
| 1777807370 | 6.11° C | 65% | 1009 hPa | 0 mm | - | 149 W/m² | - |
* Rain latest hour (hover to see other rain measurements)
** Current wind speed in m/s (hover to see current wind gust speed)